When you browse on this site, cookies collect data to enhance your experience and personalize the content and advertising you see.
Visit our Privacy Policy to learn more. By continuing to use the site, you agree to this use of cookies and data.

Hourly Weather Linz

Today, 14 July, Tuesday

Time Temperature Precipitation Wind Pressure Humidity
00:00 +13°C° 0 mm 1 mps 736 mmHg 85%
01:00 +12°C° 0 mm 1 mps 736 mmHg 86%
02:00 +12°C° 0 mm 1 mps 735 mmHg 87%
03:00 +11°C° 0 mm 1 mps 735 mmHg 88%
04:00 +11°C° 0 mm 1 mps 735 mmHg 88%
05:00 +12°C° 0 mm 1 mps 735 mmHg 85%
06:00 +14°C° 0 mm 1 mps 735 mmHg 81%
07:00 +15°C° 0 mm 1 mps 735 mmHg 78%
08:00 +18°C° 0 mm 1 mps 734 mmHg 74%
09:00 +18°C° 0 mm 2 mps 734 mmHg 70%
10:00 +20°C° 0 mm 2 mps 734 mmHg 66%
11:00 +21°C° 0 mm 2 mps 734 mmHg 63%
12:00 +23°C° 0 mm 2 mps 733 mmHg 60%
13:00 +24°C° 0 mm 2 mps 733 mmHg 57%
14:00 +24°C° 0 mm 2 mps 733 mmHg 57%
15:00 +24°C° 0 mm 2 mps 732 mmHg 57%
16:00 +25°C° 0 mm 1 mps 732 mmHg 57%
17:00 +23°C° 0.1 mm 1 mps 732 mmHg 64%
18:00 +22°C° 0.1 mm 1 mps 732 mmHg 72%
19:00 +19°C° 0.1 mm 0 mps 732 mmHg 79%
20:00 +19°C° 0 mm 1 mps 732 mmHg 82%
21:00 +18°C° 0 mm 1 mps 732 mmHg 84%
22:00 +16°C° 0 mm 1 mps 732 mmHg 87%
23:00 +15°C° 0 mm 1 mps 732 mmHg 88%

Tomorrow, 15 July, Wednesday

Time Temperature Precipitation Wind Pressure Humidity
00:00 +15°C° 0 mm 1 mps 732 mmHg 89%
01:00 +13°C° 0 mm 0 mps 732 mmHg 89%
02:00 +13°C° 0 mm 0 mps 732 mmHg 90%
03:00 +13°C° 0 mm 0 mps 732 mmHg 91%
04:00 +12°C° 0 mm 0 mps 732 mmHg 91%
05:00 +14°C° 0 mm 0 mps 732 mmHg 88%
06:00 +15°C° 0 mm 0 mps 732 mmHg 86%
07:00 +16°C° 0 mm 0 mps 732 mmHg 83%
08:00 +18°C° 0.1 mm 0 mps 732 mmHg 78%
09:00 +19°C° 0.1 mm 0 mps 732 mmHg 73%
10:00 +23°C° 0.1 mm 1 mps 732 mmHg 69%
11:00 +24°C° 0.3 mm 1 mps 732 mmHg 65%
12:00 +24°C° 0.3 mm 1 mps 732 mmHg 62%
13:00 +25°C° 0.3 mm 1 mps 732 mmHg 59%
14:00 +24°C° 0.3 mm 1 mps 731 mmHg 65%
15:00 +24°C° 0.3 mm 1 mps 731 mmHg 70%
16:00 +23°C° 0.3 mm 2 mps 731 mmHg 75%
17:00 +21°C° 0.3 mm 2 mps 732 mmHg 79%
18:00 +20°C° 0.3 mm 2 mps 732 mmHg 83%
19:00 +19°C° 0.3 mm 2 mps 732 mmHg 87%
20:00 +18°C° 0.1 mm 2 mps 732 mmHg 89%
21:00 +17°C° 0.1 mm 2 mps 733 mmHg 90%
22:00 +17°C° 0.1 mm 3 mps 733 mmHg 91%
23:00 +16°C° 0 mm 2 mps 733 mmHg 92%

Day after tomorrow, 16 July, Thursday

Time Temperature Precipitation Wind Pressure Humidity
00:00 +16°C° 0 mm 2 mps 733 mmHg 93%
01:00 +15°C° 0 mm 2 mps 733 mmHg 93%
02:00 +15°C° 0 mm 2 mps 733 mmHg 94%
03:00 +15°C° 0 mm 2 mps 733 mmHg 94%
04:00 +15°C° 0 mm 2 mps 733 mmHg 95%
05:00 +15°C° 0.1 mm 2 mps 733 mmHg 95%
06:00 +15°C° 0.1 mm 2 mps 734 mmHg 95%
07:00 +16°C° 0.1 mm 1 mps 734 mmHg 95%
08:00 +16°C° 0.3 mm 2 mps 734 mmHg 93%
09:00 +16°C° 0.3 mm 2 mps 734 mmHg 92%
10:00 +16°C° 0.3 mm 2 mps 734 mmHg 90%
11:00 +17°C° 0.2 mm 3 mps 734 mmHg 87%
12:00 +18°C° 0.2 mm 3 mps 734 mmHg 84%
13:00 +18°C° 0.2 mm 4 mps 734 mmHg 81%
14:00 +19°C° 0.2 mm 4 mps 734 mmHg 77%
15:00 +20°C° 0.2 mm 4 mps 734 mmHg 73%
16:00 +20°C° 0.2 mm 4 mps 734 mmHg 69%
17:00 +19°C° 0.2 mm 3 mps 734 mmHg 74%
18:00 +18°C° 0.2 mm 3 mps 734 mmHg 80%
19:00 +17°C° 0.2 mm 2 mps 734 mmHg 85%
20:00 +17°C° 0.2 mm 2 mps 735 mmHg 88%
21:00 +16°C° 0.2 mm 2 mps 735 mmHg 90%
22:00 +15°C° 0.2 mm 1 mps 735 mmHg 92%
23:00 +15°C° 0.7 mm 1 mps 735 mmHg 94%

17 July, Friday

Time Temperature Precipitation Wind Pressure Humidity
00:00 +15°C° 0.7 mm 1 mps 735 mmHg 96%
01:00 +15°C° 0.7 mm 1 mps 735 mmHg 97%
02:00 +15°C° 0.4 mm 1 mps 735 mmHg 97%
03:00 +14°C° 0.4 mm 1 mps 735 mmHg 97%
04:00 +14°C° 0.4 mm 1 mps 734 mmHg 97%
05:00 +15°C° 0.3 mm 1 mps 735 mmHg 96%
06:00 +15°C° 0.3 mm 1 mps 735 mmHg 95%
07:00 +15°C° 0.3 mm 1 mps 735 mmHg 95%
08:00 +15°C° 0.3 mm 2 mps 735 mmHg 94%
09:00 +16°C° 0.3 mm 2 mps 735 mmHg 93%
10:00 +16°C° 0.3 mm 3 mps 735 mmHg 92%
11:00 +17°C° 0.5 mm 3 mps 735 mmHg 88%
12:00 +19°C° 0.5 mm 4 mps 734 mmHg 84%
13:00 +20°C° 0.5 mm 4 mps 734 mmHg 80%
14:00 +20°C° 0.7 mm 4 mps 734 mmHg 80%
15:00 +20°C° 0.7 mm 4 mps 734 mmHg 81%
16:00 +20°C° 0.7 mm 4 mps 734 mmHg 82%
17:00 +19°C° 0.5 mm 3 mps 734 mmHg 84%
18:00 +19°C° 0.5 mm 2 mps 734 mmHg 86%
19:00 +19°C° 0.5 mm 1 mps 734 mmHg 88%
20:00 +18°C° 0.3 mm 1 mps 734 mmHg 89%
21:00 +16°C° 0.3 mm 1 mps 735 mmHg 90%
22:00 +16°C° 0.3 mm 2 mps 735 mmHg 92%
23:00 +15°C° 0.3 mm 1 mps 735 mmHg 92%

18 July, Saturday

Time Temperature Precipitation Wind Pressure Humidity
00:00 +15°C° 0.3 mm 1 mps 735 mmHg 93%
01:00 +14°C° 0.3 mm 1 mps 735 mmHg 93%
02:00 +14°C° 0.1 mm 1 mps 735 mmHg 93%
03:00 +14°C° 0.1 mm 1 mps 735 mmHg 94%
04:00 +14°C° 0.1 mm 1 mps 735 mmHg 94%
05:00 +15°C° 0.1 mm 1 mps 735 mmHg 93%
06:00 +16°C° 0.1 mm 1 mps 735 mmHg 92%
07:00 +18°C° 0.1 mm 1 mps 735 mmHg 91%
08:00 +19°C° 0.2 mm 1 mps 735 mmHg 85%
09:00 +20°C° 0.2 mm 1 mps 735 mmHg 78%
10:00 +21°C° 0.2 mm 2 mps 735 mmHg 71%
11:00 +23°C° 0.2 mm 2 mps 735 mmHg 68%
12:00 +24°C° 0.2 mm 2 mps 734 mmHg 64%
13:00 +24°C° 0.2 mm 2 mps 734 mmHg 60%
14:00 +24°C° 0.5 mm 2 mps 734 mmHg 63%
15:00 +24°C° 0.5 mm 1 mps 734 mmHg 66%
16:00 +24°C° 0.5 mm 1 mps 734 mmHg 69%
17:00 +23°C° 0.4 mm 1 mps 734 mmHg 74%
18:00 +22°C° 0.4 mm 1 mps 734 mmHg 79%
19:00 +19°C° 0.4 mm 0 mps 734 mmHg 84%
20:00 +18°C° 0 mm 0 mps 734 mmHg 85%
21:00 +18°C° 0 mm 1 mps 735 mmHg 87%
22:00 +16°C° 0 mm 1 mps 735 mmHg 88%
23:00 +16°C° 0 mm 1 mps 735 mmHg 88%

19 July, Sunday

Time Temperature Precipitation Wind Pressure Humidity
00:00 +16°C° 0 mm 1 mps 735 mmHg 89%
01:00 +15°C° 0 mm 0 mps 735 mmHg 89%
02:00 +14°C° 0 mm 0 mps 735 mmHg 90%
03:00 +14°C° 0 mm 0 mps 735 mmHg 90%
04:00 +13°C° 0 mm 0 mps 735 mmHg 91%
05:00 +14°C° 0 mm 0 mps 735 mmHg 89%
06:00 +16°C° 0 mm 0 mps 735 mmHg 87%
07:00 +17°C° 0 mm 0 mps 735 mmHg 85%
08:00 +19°C° 0 mm 0 mps 735 mmHg 78%
09:00 +20°C° 0 mm 0 mps 735 mmHg 72%
10:00 +24°C° 0 mm 1 mps 735 mmHg 66%
11:00 +25°C° 0 mm 1 mps 735 mmHg 62%
12:00 +26°C° 0 mm 1 mps 734 mmHg 59%
13:00 +26°C° 0 mm 1 mps 734 mmHg 56%
14:00 +27°C° 0 mm 1 mps 734 mmHg 56%
15:00 +27°C° 0 mm 1 mps 734 mmHg 56%
16:00 +27°C° 0 mm 1 mps 734 mmHg 56%
17:00 +26°C° 0 mm 1 mps 734 mmHg 63%
18:00 +24°C° 0 mm 1 mps 734 mmHg 69%
19:00 +23°C° 0 mm 1 mps 734 mmHg 76%
20:00 +22°C° 0 mm 1 mps 734 mmHg 79%
21:00 +20°C° 0 mm 1 mps 734 mmHg 82%
22:00 +19°C° 0 mm 1 mps 735 mmHg 85%
23:00 +18°C° 0 mm 1 mps 735 mmHg 86%
Show more